Weather in Nanchang

China     28°40′29″N   115°55′49″E
temp.,
°C
wind,
m/s
gust,
m/s
humid.,
%
clouds,
%
prec.,
mm/h
press.,
hPa
HPBL,
m
23 april, fri
fri2323:00+19n378780 0.0 1011245
02:00+18n479322 0.0 1011282
05:00+17n36941 0.0 1010194
08:00+20n46825 0.0 1012438
11:00+23n5469100 0.0 1012807
14:00+25nne4463100 0.0 10101005
17:00+24nne456499 0.0 1010637
20:00+21n48765 0.0 1011269
24 april, sat
sat2423:00+20n48801 0.0 1012232
02:00+19n59785 0.0 1011299
05:00+18n4881100 0.0 1011250
08:00+19nne4677100 0.0 1012397
11:00+17nnw6993100 3.5 1014417
14:00+17n71095100 15.5 1012433
17:00+17n71196100 9.1 1011554
20:00+16n71296100 28.6 1013593
25 april, sun
sun2523:00+16n71295100 6.0 1015700
02:00+16n71392100 8.1 1015792
05:00+16nnw71290100 0.1 1015717
08:00+16n61191100 0.1 1017725
11:00+16nnw61091100 0.0 1017697
14:00+17n6885100 0.1 1016750
17:00+17n4787100 0.1 1016617
20:00+16nnw4690100 0.1 1018377
26 april, mon
mon2623:00+16nnw3690100 0.1 1019313
02:00+15n3691100 0.2 1017264
05:00+15nnw2490100 0.1 1017202
08:00+16n2490100 0.1 1018232
11:00+18nnw1179100 0.1 1018460
14:00+19sw2274100 0.1 1016674
17:00+19nne1181100 0.0 1015260
20:00+17nne1290100 0.4 101695
27 april, tue
tue2723:00+16n2297100 6.3 1018164
02:00+16nnw2295100 8.0 1016156
05:00+16nnw119396 0.0 101671
08:00+17n238798 0.0 1018261
11:00+20nne2375100 0.0 1018731
14:00+22ne2267100 0.1 1016981
17:00+22nne116491 0.1 1016919
20:00+20ese1180100 0.1 101758